星链-3926 (STARLINK-3926 )

导读 | 豆包AI

STARLINK-3926是美国太空探索技术公司Starlink星链星座中的一员,于2022年5月13日发射入轨。星链星座旨在搭建全球卫星互联网,为全球提供高速低延迟网络服务,该卫星是星座组网阶段的产物,用于拓展星座覆盖能力,目前已正常在轨运行,参与全球卫星互联网络服务。

基本信息
目录编号:
52543
目录名称:
STARLINK-3926
国际标识:
2022-051L
轨道中心:
EARTH
卫星名称:
星链-3926
卫星全名:
星链-3926 (STARLINK-3926 )
卫星状态:
在轨 (已飞行1401 天)
发射日期:
2022-05-13 UTC
国别 :
美国 (US)
星等 :
--
轨道信息
数据来源 国际轨道数据 AOE轨道数据
星历时间 2026-03-14T20:39:12+0800
10小时前
查看轨道信息
2026-03-11T04:00:00+0800
4天前
查看轨道信息
半长轴 6917.911km 6917.874km
偏心率 0.0001294 0.0001646
轨道倾角 53.216° 53.216°
近地点辐角 88.837° 69.935°
升交点赤经 107.404° 123.990°
平近点角 271.277° 14.775°
近地点 538.878km 538.598km
远地点 540.67km 540.876km
周期 95.438分钟 95.437分钟
每日圈数 15.0883 15.088424
详细信息
固有亮度:
5
最大亮度:
2.5
卫星平台:
Starlink v1.5
覆盖范围:
全球
运营商:
太空探索技术公司
运营商所在国:
美国
制造商(研发单位):
太空探索技术公司
制造商所在国:
美国
使用方式:
暂无
卫星简介
星链(Starlink)计划是由太空探索技术公司(SpaceX)提出的一个巨型低轨卫星互联网星座项目,计划在2019年至2024年间在太空搭建由约1.2万颗卫星组成的“星链”网络,其中1584颗将部署在地球上空550千米处的近地轨道,并从2020年开始工作。该卫星仍在工作。
2D轨道图
3D轨道图
轨道高度分析图
轨道倾角分析图
轨道综合分析图
查看轨道综合分析图